Вернуться в каталог

SL-8 DEB

АктивенPO
NORAD 18552·DEBRIS·🇷🇺 Russia

Запущен Nov 13, 1986 с Plesetsk Cosmodrome

Loading…

Ближайшие Пролёты (ближайшие 24 часа)

TLE

СвежийSource: Space-Track

Эпоха: Sep 14, 2026, 10:31 UTC

1 18552U 86086C   26257.43840137  .00001884  00000-0  77571-3 0  9992
2 18552  82.9138  57.5980 0026825  38.6565 350.8812 14.26271882 35741

Отслеживайте SL-8 DEB в реальном времени с AllMySat

Download on the App Store